DW9356 Weather Reports


Display with metric or nautical units.
time (UTC)temp
F
wind
direction
speed
MPH
gust
MPH
rain 1hr
in
rain 24hr
in
rain mn
in
humidity
%
barometer
mb
20260503020351 67 0 0.0 1.0 0.00 0.03 0.00 71 1019.4
20260503015838 67 0 0.0 1.0 0.00 0.03 0.00 68 1019.3
20260503015341 67 17 0.0 0.0 0.00 0.04 0.00 66 1019.2
20260503014814 68 17 0.0 0.0 0.00 0.04 0.00 65 1019.2
20260503014312 69 0 0.0 0.0 0.00 0.05 0.00 64 1019.1
20260503013807 69 15 0.0 0.0 0.00 0.06 0.00 63 1019.0
20260503013305 70 0 0.0 0.0 0.00 0.06 0.00 62 1018.9
20260503012802 71 0 0.0 0.0 0.00 0.07 0.00 61 1018.8
20260503012300 71 0 0.0 0.0 0.00 0.08 0.00 59 1018.7
20260503011744 71 0 0.0 2.0 0.00 0.09 0.00 58 1018.7
20260503011246 72 0 0.0 2.0 0.00 0.10 0.00 57 1018.6
20260503010717 72 0 1.0 2.0 0.00 0.11 0.00 57 1018.7
20260503010214 73 5 1.0 3.0 0.00 0.11 0.00 56 1018.7
20260503005907 73 0 1.0 3.0 0.00 0.12 0.00 55 1018.6
20260503005137 73 0 1.0 3.0 0.00 0.12 0.00 54 1018.4
20260503004635 73 0 1.0 3.0 0.00 0.12 0.00 54 1018.4
20260503004323 74 10 1.0 3.0 0.00 0.12 0.00 54 1018.3
20260503003826 74 5 1.0 5.0 0.00 0.12 0.00 54 1018.2
20260503003037 74 349 2.0 5.0 0.00 0.13 0.00 53 1018.2
20260503003016 74 327 2.0 5.0 0.00 0.13 0.00 52 1018.1
20260503002228 75 11 2.0 6.0 0.00 0.13 0.00 52 1018.1
20260503001729 75 348 3.0 7.0 0.00 0.14 0.00 51 1018.1
20260503001159 75 355 3.0 7.0 0.00 0.14 0.00 50 1018.1
20260503000432 76 355 3.0 7.0 0.00 0.17 0.00 50 1018.0
20260503000408 76 24 2.0 6.0 0.00 0.19 0.00 50 1017.9
20260502235422 76 283 2.0 6.0 0.00 0.19 0.00 50 1017.9
20260502234920 76 51 2.0 6.0 0.00 0.20 0.00 50 1017.8
20260502234417 76 41 2.0 9.0 0.00 0.21 0.00 50 1017.9
20260502233914 76 71 3.0 9.0 0.00 0.21 0.00 49 1017.9
20260502233410 76 101 3.0 8.0 0.00 0.21 0.00 49 1017.9
20260502232907 76 28 3.0 8.0 0.00 0.21 0.00 48 1017.9
20260502232403 76 40 3.0 8.0 0.00 0.21 0.00 48 1017.9
20260502231836 76 28 3.0 8.0 0.00 0.22 0.00 48 1017.9
20260502231333 76 26 3.0 8.0 0.00 0.23 0.00 49 1017.8
20260502230830 76 24 3.0 7.0 0.00 0.26 0.00 49 1017.7
20260502230310 76 28 3.0 7.0 0.00 0.31 0.00 49 1017.7
20260502225812 76 289 4.0 8.0 0.00 0.32 0.00 49 1017.8
20260502225308 76 25 3.0 8.0 0.00 0.34 0.00 48 1017.9
20260502224805 77 277 3.0 7.0 0.00 0.40 0.00 48 1017.8
20260502224301 77 38 2.0 7.0 0.00 0.41 0.00 48 1017.7
20260502223800 76 32 3.0 7.0 0.00 0.41 0.00 49 1017.8
20260502223504 76 355 3.0 8.0 0.00 0.41 0.00 49 1017.9
20260502222923 77 309 3.0 8.0 0.00 0.41 0.00 49 1018.0
20260502222157 77 5 3.0 9.0 0.00 0.41 0.00 48 1017.9
20260502221631 77 42 3.0 9.0 0.00 0.41 0.00 47 1017.9
20260502221105 77 9 3.0 9.0 0.00 0.41 0.00 48 1017.9
20260502220537 77 87 2.0 6.0 0.00 0.41 0.00 49 1018.0
20260502220033 77 334 3.0 7.0 0.00 0.41 0.00 50 1018.1
20260502215504 77 313 2.0 7.0 0.00 0.42 0.00 51 1018.1
20260502215001 77 24 2.0 6.0 0.00 0.42 0.00 49 1018.1
20260502214459 77 113 3.0 6.0 0.00 0.44 0.00 50 1018.1
20260502213933 77 350 3.0 7.0 0.00 0.44 0.00 48 1018.2
20260502213635 77 307 3.0 7.0 0.00 0.46 0.00 48 1018.2
20260502212901 77 35 3.0 7.0 0.00 0.47 0.00 48 1018.2
20260502212401 77 308 3.0 7.0 0.00 0.47 0.00 49 1018.2
20260502211833 77 31 4.0 14.0 0.00 0.47 0.00 49 1018.3
20260502211331 77 9 3.0 14.0 0.00 0.47 0.00 50 1018.3
20260502210803 77 59 3.0 9.0 0.00 0.47 0.00 52 1018.3
20260502210301 76 19 3.0 9.0 0.00 0.47 0.00 50 1018.4
20260502205950 76 23 4.0 11.0 0.00 0.48 0.00 50 1018.4
20260502205451 76 344 4.0 11.0 0.00 0.49 0.00 50 1018.4
20260502204925 76 51 3.0 8.0 0.00 0.50 0.00 48 1018.4
20260502204200 77 115 3.0 11.0 0.00 0.51 0.00 50 1018.5
20260502203635 77 97 4.0 10.0 0.00 0.52 0.00 50 1018.5
20260502203106 77 31 4.0 12.0 0.00 0.53 0.00 51 1018.6
20260502202539 77 314 3.0 12.0 0.00 0.54 0.00 49 1018.6
20260502202026 77 35 3.0 10.0 0.00 0.56 0.00 50 1018.7
20260502201529 77 36 3.0 7.0 0.00 0.56 0.00 52 1018.7
20260502201002 76 288 3.0 8.0 0.00 0.59 0.00 53 1018.7
20260502200458 76 13 4.0 10.0 0.00 0.61 0.00 51 1018.8
20260502195931 76 90 4.0 10.0 0.00 0.63 0.00 51 1018.9
20260502195427 75 291 3.0 8.0 0.00 0.63 0.00 49 1018.9
20260502194901 76 89 4.0 11.0 0.00 0.63 0.00 51 1019.0
20260502194334 76 49 4.0 13.0 0.00 0.63 0.00 51 1019.1
20260502194023 76 51 4.0 13.0 0.00 0.63 0.00 51 1019.2
20260502193241 76 101 4.0 9.0 0.00 0.63 0.00 53 1019.2
20260502192943 76 43 3.0 8.0 0.00 0.64 0.00 51 1019.3
20260502192210 75 316 4.0 9.0 0.00 0.64 0.00 54 1019.3
20260502191651 75 68 4.0 12.0 0.00 0.64 0.00 53 1019.5
20260502191124 75 355 4.0 12.0 0.00 0.64 0.00 53 1019.5
20260502190849 75 280 4.0 9.0 0.00 0.65 0.00 51 1019.6
20260502190055 74 82 3.0 7.0 0.00 0.65 0.00 53 1019.5
20260502185528 75 340 2.0 8.0 0.00 0.66 0.00 54 1019.6
20260502185002 74 328 3.0 8.0 0.00 0.68 0.00 53 1019.6
20260502184639 74 40 3.0 8.0 0.00 0.72 0.00 56 1019.8
20260502184524 74 42 3.0 8.0 0.00 0.68 0.00 54 1019.8
20260502183428 73 39 3.0 8.0 0.00 0.75 0.00 54 1019.9
20260502182902 74 0 3.0 10.0 0.00 0.76 0.00 54 1020.0
20260502182827 74 36 3.0 10.0 0.00 0.77 0.00 54 1020.0
20260502181810 74 55 4.0 9.0 0.00 0.78 0.00 55 1020.1
20260502181302 74 18 4.0 10.0 0.00 0.78 0.00 56 1020.1
20260502181004 74 345 4.0 10.0 0.00 0.80 0.00 55 1020.2
20260502180454 73 99 4.0 10.0 0.00 0.80 0.00 57 1020.2
20260502170520 72 9 4.0 9.0 0.00 0.86 0.00 57 1020.6
20260502163855 71 24 5.0 11.0 0.00 0.89 0.00 59 1020.7
20260502163329 70 5 4.0 11.0 0.00 0.90 0.00 59 1020.7
20260502162803 70 55 4.0 10.0 0.00 0.91 0.00 60 1020.7
20260502162236 70 301 4.0 10.0 0.00 0.92 0.00 62 1020.7
20260502161957 70 34 3.0 9.0 0.00 0.97 0.00 62 1020.6
20260502161450 70 26 3.0 10.0 0.00 1.00 0.00 67 1020.7
20260502160727 69 42 4.0 10.0 0.00 1.02 0.00 68 1020.6
20260502160200 69 37 5.0 8.0 0.00 1.06 0.00 66 1020.5
20260502151959 66 9 3.0 11.0 0.00 1.11 0.00 74 1020.5
20260502151455 65 13 3.0 8.0 0.00 1.11 0.00 74 1020.4
20260502150936 65 60 2.0 9.0 0.00 1.15 0.00 76 1020.4
20260502150931 65 21 3.0 10.0 0.00 1.11 0.00 76 1020.4
20260502150611 64 71 3.0 10.0 0.00 1.20 0.00 76 1020.4
20260502130501 56 340 2.0 5.0 0.00 1.65 0.00 94 1019.3
20260502130418 55 30 2.0 6.0 0.00 1.68 0.00 94 1019.2
20260502123348 53 345 2.0 5.0 0.00 1.81 0.00 95 1018.7
20260502122822 53 342 2.0 4.0 0.00 1.85 0.00 95 1018.7
20260502122255 53 9 1.0 3.0 0.00 1.87 0.00 95 1018.7
20260502121753 53 9 1.0 3.0 0.00 1.88 0.00 95 1018.7
20260502121226 53 0 1.0 3.0 0.00 1.88 0.00 95 1018.6
20260502120944 53 0 1.0 3.0 0.00 1.89 0.00 95 1018.5
20260502120219 53 0 0.0 2.0 0.00 1.90 0.00 95 1018.4
20260502115651 53 0 1.0 2.0 0.00 1.92 0.00 95 1018.3
20260502115148 53 9 1.0 4.0 0.00 1.96 0.00 95 1018.1
20260502114842 53 351 0.0 3.0 0.00 2.06 0.00 94 1018.1
20260502114731 53 17 1.0 4.0 0.00 2.02 0.00 94 1018.1
20260502113611 53 350 1.0 2.0 0.00 2.06 0.00 94 1018.1
20260502113109 53 350 1.0 3.0 0.00 2.07 0.00 94 1018.0
20260502112542 53 349 0.0 3.0 0.00 2.09 0.00 94 1017.9
20260502112305 53 350 0.0 2.0 0.00 2.10 0.00 94 1017.9
20260502111958 53 349 1.0 3.0 0.00 2.10 0.00 94 1017.9
20260502111207 53 349 1.0 3.0 0.00 2.12 0.00 94 1017.8
20260502110442 53 346 1.0 3.0 0.00 2.14 0.00 94 1017.8
20260502105917 53 350 2.0 4.0 0.00 2.16 0.00 94 1017.8
20260502105350 53 337 2.0 4.0 0.00 2.17 0.00 94 1017.7
20260502104845 53 322 2.0 4.0 0.00 2.17 0.00 94 1017.6
20260502104341 53 25 2.0 4.0 0.00 2.18 0.00 94 1017.6
20260502103837 53 34 2.0 5.0 0.00 2.18 0.00 93 1017.6
20260502103331 53 38 1.0 5.0 0.00 2.18 0.00 93 1017.5
20260502102828 53 340 1.0 4.0 0.00 2.19 0.00 93 1017.5
20260502102305 53 19 2.0 6.0 0.00 2.20 0.00 93 1017.4
20260502102023 53 11 2.0 6.0 0.00 2.26 0.00 93 1017.3
20260502101232 53 335 2.0 4.0 0.00 2.29 0.00 93 1017.2
20260502100729 53 5 2.0 4.0 0.00 2.31 0.00 93 1017.1
20260502100226 53 355 1.0 4.0 0.00 2.32 0.00 93 1017.1
20260502091246 54 30 1.0 4.0 0.00 2.91 0.00 92 1016.1
20260502090455 54 28 1.0 4.0 0.00 2.92 0.00 92 1016.0
20260502071441 56 84 2.0 11.0 0.00 3.82 0.00 93 1015.9
20260502071143 56 19 2.0 5.0 0.00 3.82 0.00 94 1016.1
20260502070347 56 19 2.0 5.0 0.00 3.82 0.00 94 1016.1
20260502065844 55 24 3.0 9.0 0.00 3.82 0.00 94 1016.1
20260502065341 55 28 3.0 9.0 0.00 3.82 0.00 94 1016.1
20260502064839 55 5 2.0 6.0 0.00 3.82 0.00 94 1015.9
20260502064551 55 112 2.0 10.0 0.00 3.82 0.00 94 1015.8
20260502063825 55 13 3.0 10.0 0.00 3.82 0.00 94 1015.8
20260502063258 55 35 2.0 9.0 0.00 3.82 0.00 94 1015.8
20260502062754 55 61 2.0 7.0 0.00 3.82 0.00 95 1015.7
20260502062229 55 56 2.0 5.0 0.00 3.82 0.00 95 1015.7
20260502061931 55 52 2.0 6.0 0.00 3.82 0.00 94 1015.7
20260502061159 55 57 2.0 6.0 0.00 3.82 0.00 94 1015.7
20260502060658 55 38 3.0 7.0 0.00 3.82 0.00 94 1015.6
20260502060130 56 46 3.0 7.0 0.00 3.82 0.00 94 1015.7
20260502055626 56 103 3.0 10.0 0.00 3.83 0.00 95 1015.7
20260502055059 56 28 3.0 10.0 0.00 3.85 0.00 95 1015.7
20260502054820 56 53 4.0 12.0 0.00 3.87 0.00 95 1015.7
20260502054029 56 53 4.0 12.0 0.00 3.87 0.00 95 1015.6
20260502053528 56 345 3.0 11.0 0.00 3.87 0.00 95 1015.6
20260502053025 56 342 4.0 9.0 0.00 3.87 0.00 95 1015.6
20260502052459 56 340 4.0 9.0 0.00 3.87 0.00 95 1015.6
20260502051955 56 40 3.0 9.0 0.00 3.87 0.00 95 1015.7
20260502051453 56 355 3.0 10.0 0.00 3.87 0.00 96 1015.6
20260502050925 56 51 5.0 14.0 0.00 3.88 0.00 96 1015.6
20260502050649 56 56 4.0 14.0 0.00 3.94 0.00 96 1015.6
20260502045858 56 30 4.0 11.0 0.00 4.04 4.00 96 1015.5
20260502045839 56 48 4.0 11.0 0.00 4.06 4.00 96 1015.4
20260502044856 56 28 3.0 9.0 0.00 4.12 4.00 96 1015.5
20260502044331 56 5 3.0 9.0 0.00 4.15 4.00 96 1015.5
20260502044031 56 65 4.0 10.0 0.00 4.15 4.00 96 1015.5
20260502043250 56 69 4.0 11.0 0.00 4.15 4.00 96 1015.5
20260502042728 56 44 5.0 12.0 0.00 4.15 4.00 96 1015.4
20260502042225 56 18 4.0 12.0 0.00 4.15 4.00 96 1015.3
20260502041722 56 311 4.0 11.0 0.00 4.15 4.00 97 1015.3
20260502041225 56 303 4.0 11.0 0.00 4.15 4.00 97 1015.3
20260502040653 56 31 3.0 8.0 0.00 4.15 4.00 97 1015.5
20260502040135 56 26 3.0 7.0 0.00 4.15 4.00 97 1015.7
20260502035611 56 323 3.0 8.0 0.00 4.15 4.00 97 1015.7
20260502035044 56 0 4.0 9.0 0.00 4.15 4.00 97 1015.6
20260502034542 56 19 3.0 8.0 0.00 4.15 4.00 97 1015.6
20260502034024 56 13 3.0 10.0 0.00 4.15 4.00 97 1015.4
20260502033524 56 14 3.0 10.0 0.00 4.15 4.00 97 1015.4
20260502033245 56 5 4.0 10.0 0.00 4.15 4.00 97 1015.3
20260502032511 56 49 5.0 10.0 0.00 4.15 4.00 97 1015.2
20260502031953 56 307 5.0 14.0 0.00 4.15 4.00 97 1015.1
20260502031453 56 19 4.0 14.0 0.00 4.15 4.00 97 1015.0
20260502031204 56 0 3.0 8.0 0.02 4.15 4.00 97 1015.0
20260502030441 56 355 3.0 9.0 0.03 4.15 4.00 97 1014.8
20260502025940 56 24 3.0 9.0 0.03 4.15 4.00 97 1014.8
20260502025440 56 33 3.0 6.0 0.03 4.15 4.00 97 1014.6
20260502024943 56 5 4.0 10.0 0.04 4.15 4.00 97 1014.5
20260502024650 56 79 4.0 10.0 0.05 4.15 4.00 97 1014.2
20260502023906 56 66 4.0 10.0 0.06 4.15 4.00 97 1013.9
20260502023343 56 202 4.0 10.0 0.06 4.15 4.00 97 1013.9
20260502023110 56 111 3.0 7.0 0.07 4.15 4.00 97 1013.9
20260502022331 56 57 3.0 10.0 0.08 4.15 4.00 97 1014.1
20260502021831 56 13 3.0 8.0 0.09 4.15 4.00 97 1014.0
20260502021314 57 39 3.0 10.0 0.10 4.15 4.00 97 1013.9